Regional Weather Roundup
Issued by NWS Newport/Morehead, NC

Current Version | Previous Version | Graphics & Text | Print | Product List | Glossary On
Versions: 1 2 3 4 5 6 7 8 9 10 11 12 13 14 15 16 17 18 19 20 21 22 23 24 25 26 27 28 29 30 31 32 33 34 35 36 37 38 39 40 41 42 43 44 45 46 47 48 49 50
000 ASUS42 KMHX 271613 RWRMHX WEATHER ROUNDUP FOR EASTERN NORTH CAROLINA NATIONAL WEATHER SERVICE NEWPORT/MOREHEAD CITY NC 1200 PM EDT FRI MAY 27 2016 NOTE: "FAIR" INDICATES FEW OR NO CLOUDS BELOW 12,000 FEET WITH NO SIGNIFICANT WEATHER AND/OR OBSTRUCTIONS TO VISIBILITY NCZ015>017-031-032-045>047-102-103-271700- NORTH COAST CITY SKY/WX TMP DP RH WIND PRES REMARKS EDENTON MOSUNNY 81 66 59 S3 30.18R ELIZABETH CITY PTSUNNY 80 61 52 SW9 30.18R KITTY HAWK SUNNY 84 56 38 SE6 30.17S MANTEO NOT AVBL $$ NCZ045>047-081-094-103-104-271700- CENTRAL COAST CITY SKY/WX TMP DP RH WIND PRES REMARKS FRISCO SUNNY 82 60 47 SE5 30.19S $$ NCZ095-097-098-100-101-271700- SOUTHERN COAST CITY SKY/WX TMP DP RH WIND PRES REMARKS BEAUFORT SUNNY 80 55 42 SE10 30.18S CEDAR ISLAND NOT AVBL JACKSONVILLE SUNNY 80 59 48 SE8 30.17S PINEY ISLAND SUNNY N/A N/A N/A E9 30.18S WILMINGTON SUNNY 79 59 50 VRB7 30.17S $$ NCZ011>013-027>030-043-044-078>080-089-090>093-098-271700- COASTAL PLAIN CITY SKY/WX TMP DP RH WIND PRES REMARKS AHOSKIE SUNNY 81 63 54 S5 30.16S CLINTON SUNNY 81 64 56 S5 30.16S ELIZABETHTOWN SUNNY 82 61 49 CALM 30.16S GOLDSBORO SUNNY 83 62 48 VRB5 30.15S GREENVILLE MOSUNNY 82 63 51 SW6 30.18R HAVELOCK SUNNY 83 60 45 E9 30.18S KENANSVILLE SUNNY 80 58 47 CALM 30.18S KINSTON SUNNY 82 61 47 SE6 30.18R NEW BERN SUNNY 81 61 50 E8 30.18F RICHLANDS SUNNY 81 61 50 E7 30.17F ROCKY MOUNT SUNNY 83 64 52 VRB5 30.16S WASHINGTON SUNNY 82 62 51 SE7 30.17S WHITEVILLE SUNNY 81 60 49 CALM 30.15F $$ AMZ130-135-150-152-154-156-158-170-250-252-270-ANZ085-086-088-633-658-670-271700- MARINE OBSERVATIONS STATION/POSITION TIME TEMP WIND PRES WAVE SWELL AIR SEA DIR/SP/G HT/PER HT/PER (UTC) (F) (DEG/KT/KT) (MB) (FT/S) (FT/S) CHESAPEAKE LIGHT 1600 69 170/ 16/ 17 1021.9 64 E VA BEACH 1550 65 61 180/ 4/ 4 1022.3 2/ 8 2/ 8 DUCK 1500 71 61 160/ 7/ 8 1021.3 2 E DUCK 1511 64 N/A 1/ 7 OREGON INLET 1500 76 74 180/ 9/ 10 1022.1 13E OREGON INLT 1600 69 N/A 2/ 7 2/ 7 HATTERAS CG 1500 76 72 160/ 5/ 7 1021.9 DIAMOND BUOY 1550 78 82 110/ 8/ 10 1022.3 2/ 8 2/ 8 CAPE LOOKOUT 1600 76 110/ 5/ 7 1021.8 BEAUFORT LAB 1500 76 72 130/ 7/ 9 1021.3 30 SE NEW RVR IN 1525 75 N/A 2/ 8 27 SE WRIGHTSVLE 1508 76 74 60/ 6/ 10 1021.3 5 SE WRIGHTSVLE 1508 75 74 120/ 10/ 12 1022.3 225 S CAPE HAT 1550 77 78 80/ 16/ 17 1019.4 4/ 4 2/ 8 41 SE CHARLESTON 1550 77 77 60/ 12/ 14 1020.3 3/ 8 2/ 8 $$

USA.gov is the U.S. government's official web portal to all federal, state and local government web resources and services.